Location: Écuvilly
(49.6505°N, 2.9206°E)
Time: 06:11:11
(UTC+00:00)

Cosmos 2061 Rocket - Pass Details

Date: 17 November 2025
Orbit: 964 x 1012 km, 82.9° (Epoch: 10 December)

Event Time Altitude Azimuth Distance (km) Brightness Sun altitude
Rises 17:02:23 0° 184° (S) 3,694 7.3 -9.7°
Reaches altitude 10° 17:04:54 10° 184° (S) 2,742 6.6 -10.0°
Maximum altitude 17:11:12 83° 97° (E) 994 4.0 -11.0°
Drops below altitude 10° 17:17:28 10° 11° (N) 2,729 6.1 -12.0°
Sets 17:19:58 0° 11° (N) 3,675 6.8 -12.4°
